Airport Information

KMFR - Rogue Valley Intl Medford Airport

KMFR 241553Z 01004KT 10SM CLR 17/07 A3002 RMK AO2 SLP159 T01720072


  • General Information

  • Coordinates: N 42°22'27"/ W 122°52'24"
  • Location: N/A
  • Surveyed Elevation: 1335 MSL

Operations

Flow Name Active Runways Conditions

Green background denotes normal operations.


Common Frequencies

Callsign Frequency Position Name

More at the Document Center


Charts